Location: Worth Mountain WMA
(34.9569°N, 81.4819°W)
Time: 20:36:20
(UTC-04:00)

Amateur Radio Satellites - All Passes

Search period start: 24 October 2014 20:06
Search period end: 25 October 2014 20:06
Location: Worth Mountain WMA, 34.9569°N, 81.4819°W

Satellite Date Start Highest point End Downlink Frequencies (MHz)
Time Altitude Azimuth
HO-68 24 Oct 20:14:45 20:19:51 22° 61° (ENE) 20:24:59 435.675 MHz FM
KITSAT 1 24 Oct 20:35:53 20:41:26 20° 43° (NE) 20:46:58 435.175 FM
STRAND 1 24 Oct 20:38:26 20:43:31 62° 286° (WNW) 20:48:34 ?
AO-40 24 Oct 21:12:09 23:15:18 35° 214° (SSW) 03:50:41 Beacon 2401.320
ISS 24 Oct 21:17:10 21:20:10 31° 228° (SW) 21:23:10 145.800 FM
RS-15 24 Oct 21:37:11 21:46:35 34° 106° (ESE) 21:55:50 29.354 - 29.394 USB, Beacon 29.352 USB
ZACube-1 24 Oct 21:41:50 21:42:41 11° 65° (ENE) 21:43:32 437.345 MHz
UKube-1 24 Oct 21:44:05 21:47:53 30° 71° (ENE) 21:51:41 145.840 MHz, 145.915 MHz
HO-68 24 Oct 21:59:49 22:06:54 66° 257° (WSW) 22:14:03 435.675 MHz FM
FUNcube-1 24 Oct 22:23:04 22:27:06 31° 72° (ENE) 22:31:05 145.950 - 145.970 MHz USB
Oscar 11 24 Oct 22:25:08 22:29:28 83° 77° (ENE) 22:33:48 145.825 FM, Beacon 2401.500 USB
KITSAT 1 24 Oct 22:29:51 22:37:58 87° 63° (ENE) 22:46:02 435.175 FM
SO-50 24 Oct 22:40:43 22:45:34 66° 59° (ENE) 22:50:25 436.795 FM
ZACube-1 24 Oct 23:13:54 23:18:29 67° 259° (W) 23:23:01 437.345 MHz
MaSat-1 24 Oct 23:16:16 23:18:47 16° 106° (ESE) 23:21:12 437.345 MHz
UKube-1 24 Oct 23:20:56 23:24:03 19° 265° (W) 23:27:12 145.840 MHz, 145.915 MHz
RS-15 24 Oct 23:47:25 23:58:14 60° 304° (NW) 00:09:01 29.354 - 29.394 USB, Beacon 29.352 USB
FUNcube-1 24 Oct 23:59:59 00:03:26 21° 265° (W) 00:06:53 145.950 - 145.970 MHz USB
UOSAT-12 25 Oct 00:05:04 00:09:32 42° 56° (NE) 00:13:55 437.025 FM, 437.400 FM
SO-50 25 Oct 00:23:42 00:25:33 12° 253° (WSW) 00:27:24 436.795 FM
KITSAT 1 25 Oct 00:27:55 00:32:17 16° 259° (W) 00:36:39 435.175 FM
MaSat-1 25 Oct 00:50:20 00:54:12 35° 296° (WNW) 00:57:45 437.345 MHz
UOSAT-12 25 Oct 01:46:10 01:49:19 18° 251° (WSW) 01:52:25 437.025 FM, 437.400 FM
JAS-1B 25 Oct 01:55:28 02:00:53 23° 97° (E) 02:06:55 435.800 - 435.900 CW/SSB
Oscar 16 25 Oct 02:04:12 02:08:08 22° 95° (E) 02:12:02 437.025 USB, Beacon 2401.1428
RS-15 25 Oct 02:06:48 02:13:33 18° 332° (NNW) 02:20:21 29.354 - 29.394 USB, Beacon 29.352 USB
Uribyol 2 25 Oct 02:25:08 02:27:41 14° 92° (E) 02:30:13 436.500 FM
ITAMSAT 1 25 Oct 02:30:54 02:33:47 15° 93° (E) 02:36:39 435.822 SSB
Oscar 10/S400 25 Oct 02:37:30 03:32:49 17° 250° (WSW) 05:16:06 145.825 - 145.975 CW/USB, Beacon 145.810 USB
Gurwin Techsat 1B 25 Oct 02:52:03 02:54:01 12° 91° (E) 02:56:00 435.225 FM
Oscar 19 25 Oct 02:56:41 03:01:49 76° 103° (ESE) 03:06:55 437.125 CW, 437.150 USB
TMSAT-1 25 Oct 03:03:43 03:05:09 11° 91° (E) 03:06:34 436.925 FM
AO-27 25 Oct 03:14:50 03:19:49 44° 99° (E) 03:24:45 436.795 MHz FM
AO-Echo 25 Oct 03:36:27 03:41:48 84° 284° (WNW) 03:47:05 ?
Sapphire 25 Oct 03:41:10 03:45:52 31° 108° (ESE) 03:50:35 437.095 MHz 1200 baud AX-25 AFSK
Oscar 16 25 Oct 03:42:52 03:47:31 36° 289° (WNW) 03:52:09 437.025 USB, Beacon 2401.1428
JAS-1B 25 Oct 03:44:50 03:51:32 60° 287° (WNW) 03:59:32 435.800 - 435.900 CW/SSB
Uribyol 2 25 Oct 04:02:22 04:07:29 59° 287° (WNW) 04:12:34 436.500 FM
PCSat 25 Oct 04:03:01 04:08:16 56° 112° (ESE) 04:13:34 145.825 MHz
ITAMSAT 1 25 Oct 04:08:28 04:13:34 55° 287° (WNW) 04:18:37 435.822 SSB
RS-15 25 Oct 04:28:59 04:32:51 12° 11° (N) 04:36:45 29.354 - 29.394 USB, Beacon 29.352 USB
Gurwin Techsat 1B 25 Oct 04:29:07 04:34:24 68° 285° (WNW) 04:39:39 435.225 FM
OPAL 25 Oct 04:30:11 04:32:45 14° 62° (ENE) 04:35:18 ?
Oscar 19 25 Oct 04:38:58 04:40:27 11° 298° (WNW) 04:41:56 437.125 CW, 437.150 USB
TMSAT-1 25 Oct 04:40:14 04:45:31 73° 285° (WNW) 04:50:47 436.925 FM
AO-27 25 Oct 04:55:15 04:58:57 20° 294° (WNW) 05:02:38 436.795 MHz FM
JAS-2 25 Oct 05:15:41 05:19:00 13° 88° (E) 05:22:17 435.800 - 435.900 CW/SSB, 435.910 FM
AO-7 25 Oct 05:20:39 05:28:43 52° 102° (ESE) 05:36:46 29.400 - 29.500 MHz
Uosat F 25 Oct 05:21:50 05:26:31 37° 99° (E) 05:31:10 435.120 FM
Sapphire 25 Oct 05:24:27 05:29:12 31° 304° (NW) 05:33:59 437.095 MHz 1200 baud AX-25 AFSK
PCSat 25 Oct 05:48:14 05:52:01 19° 309° (NW) 05:55:50 145.825 MHz
OPAL 25 Oct 06:05:57 06:11:04 65° 256° (WSW) 06:16:09 ?
STRAND 1 25 Oct 06:14:44 06:17:25 14° 64° (ENE) 06:20:06 ?
Hamsat 25 Oct 06:24:43 06:27:53 21° 95° (E) 06:31:03 145.90 MHz
RS-15 25 Oct 06:40:34 06:50:22 33° 45° (NE) 07:00:26 29.354 - 29.394 USB, Beacon 29.352 USB
JAS-2 25 Oct 06:56:59 07:04:52 81° 103° (ESE) 07:12:36 435.800 - 435.900 CW/SSB, 435.910 FM
Uosat F 25 Oct 07:01:14 07:05:01 22° 293° (WNW) 07:08:47 435.120 FM
Saudisat 1A 25 Oct 07:11:25 07:14:54 24° 111° (ESE) 07:18:25 436.775 MHz
AO-7 25 Oct 07:14:02 07:21:05 32° 299° (WNW) 07:28:10 29.400 - 29.500 MHz
SO-67 25 Oct 07:28:55 07:29:30 10° 93° (E) 07:30:05 435.3500 MHz FM
PANSAT 25 Oct 07:45:01 07:47:53 20° 166° (SSE) 07:50:45 not established
STRAND 1 25 Oct 07:51:00 07:56:02 60° 259° (W) 08:01:08 ?
Hamsat 25 Oct 08:00:16 08:03:46 26° 289° (WNW) 08:07:17 145.90 MHz
JAS-2 25 Oct 08:43:43 08:48:56 20° 299° (WNW) 08:54:11 435.800 - 435.900 CW/SSB, 435.910 FM
Saudisat 1A 25 Oct 08:50:29 08:54:19 29° 306° (NW) 08:58:10 436.775 MHz
RS-15 25 Oct 08:52:26 09:03:35 71° 246° (WSW) 09:15:15 29.354 - 29.394 USB, Beacon 29.352 USB
SO-67 25 Oct 08:59:27 09:02:34 32° 286° (WNW) 09:05:39 435.3500 MHz FM
PANSAT 25 Oct 09:24:12 09:27:35 30° 178° (S) 09:30:59 not established
HO-68 25 Oct 09:31:47 09:37:52 29° 97° (E) 09:43:54 435.675 MHz FM
Oscar 11 25 Oct 10:17:01 10:20:05 19° 95° (E) 10:23:08 145.825 FM, Beacon 2401.500 USB
MaSat-1 25 Oct 10:39:41 10:41:45 23° 252° (WSW) 10:43:43 437.345 MHz
KITSAT 1 25 Oct 11:02:57 11:07:30 16° 101° (E) 11:12:02 435.175 FM
PANSAT 25 Oct 11:04:12 11:07:19 24° 191° (S) 11:10:26 not established
ZACube-1 25 Oct 11:07:07 11:10:46 28° 97° (E) 11:14:22 437.345 MHz
RS-15 25 Oct 11:10:15 11:14:01 12° 263° (W) 11:17:51 29.354 - 29.394 USB, Beacon 29.352 USB
UKube-1 25 Oct 11:10:53 11:15:16 89° 284° (WNW) 11:19:37 145.840 MHz, 145.915 MHz
HO-68 25 Oct 11:18:53 11:25:40 47° 292° (WNW) 11:32:26 435.675 MHz FM
FUNcube-1 25 Oct 11:51:18 11:55:32 80° 283° (WNW) 11:59:41 145.950 - 145.970 MHz USB
Oscar 11 25 Oct 11:52:30 11:56:15 30° 288° (WNW) 12:00:00 145.825 FM, Beacon 2401.500 USB
ISS 25 Oct 12:20:08 12:23:14 37° 132° (SE) 12:26:20 145.800 FM
Sapphire 25 Oct 12:33:19 12:36:17 15° 48° (NE) 12:39:14 437.095 MHz 1200 baud AX-25 AFSK
Oscar 10/S400 25 Oct 12:36:12 12:58:52 34° 153° (SSE) 13:15:35 145.825 - 145.975 CW/USB, Beacon 145.810 USB
ZACube-1 25 Oct 12:43:57 12:46:57 19° 291° (WNW) 12:49:55 437.345 MHz
PANSAT 25 Oct 12:46:34 12:46:53 10° 203° (SSW) 12:47:11 not established
SO-50 25 Oct 12:52:39 12:56:53 45° 114° (ESE) 13:01:15 436.795 FM
KITSAT 1 25 Oct 12:53:45 13:01:50 85° 297° (WNW) 13:09:58 435.175 FM
PCSat 25 Oct 12:54:49 12:59:08 24° 53° (NE) 13:03:26 145.825 MHz
Oscar 16 25 Oct 13:18:08 13:22:12 24° 68° (ENE) 13:26:16 437.025 USB, Beacon 2401.1428
Uribyol 2 25 Oct 13:39:53 13:43:02 16° 64° (ENE) 13:46:10 436.500 FM
ITAMSAT 1 25 Oct 13:45:51 13:49:11 18° 65° (ENE) 13:52:32 435.822 SSB
ISS 25 Oct 13:57:27 14:00:00 20° 328° (NNW) 14:02:34 145.800 FM
Gurwin Techsat 1B 25 Oct 14:09:47 14:12:45 15° 64° (ENE) 14:15:43 435.225 FM
Oscar 19 25 Oct 14:10:11 14:15:20 78° 75° (ENE) 14:20:29 437.125 CW, 437.150 USB
UOSAT-12 25 Oct 14:13:31 14:17:21 27° 111° (ESE) 14:21:15 437.025 FM, 437.400 FM
Sapphire 25 Oct 14:14:52 14:20:18 77° 246° (WSW) 14:25:42 437.095 MHz 1200 baud AX-25 AFSK
TMSAT-1 25 Oct 14:20:55 14:23:36 14° 64° (ENE) 14:26:16 436.925 FM
JAS-1B 25 Oct 14:27:57 14:34:05 90° 252° (WSW) 14:39:47 435.800 - 435.900 CW/SSB
AO-27 25 Oct 14:29:41 14:34:40 48° 72° (ENE) 14:39:41 436.795 MHz FM
SO-50 25 Oct 14:34:32 14:37:40 18° 311° (NW) 14:40:51 436.795 FM
PCSat 25 Oct 14:37:36 14:42:42 43° 250° (WSW) 14:47:46 145.825 MHz
AO-Echo 25 Oct 14:46:03 14:50:54 88° 77° (ENE) 14:55:57 ?
KITSAT 1 25 Oct 14:52:57 14:58:24 19° 318° (NW) 15:03:53 435.175 FM
Oscar 16 25 Oct 14:56:39 15:01:19 35° 262° (W) 15:06:01 437.025 USB, Beacon 2401.1428
Uribyol 2 25 Oct 15:16:54 15:22:00 55° 259° (W) 15:27:08 436.500 FM
ITAMSAT 1 25 Oct 15:23:11 15:28:13 50° 260° (W) 15:33:18 435.822 SSB
Gurwin Techsat 1B 25 Oct 15:46:56 15:52:09 60° 259° (W) 15:57:25 435.225 FM
UOSAT-12 25 Oct 15:53:19 15:57:22 29° 307° (NW) 16:01:30 437.025 FM, 437.400 FM
TMSAT-1 25 Oct 15:57:40 16:02:54 65° 259° (WSW) 16:08:11 436.925 FM
AO-27 25 Oct 16:11:03 16:14:23 17° 266° (W) 16:17:44 436.795 MHz FM
AO-7 25 Oct 16:15:55 16:23:51 53° 67° (ENE) 16:31:47 29.400 - 29.500 MHz
Uosat F 25 Oct 16:31:56 16:36:31 37° 71° (ENE) 16:41:07 435.120 FM
JAS-2 25 Oct 17:07:06 17:11:41 23° 63° (ENE) 17:16:41 435.800 - 435.900 CW/SSB, 435.910 FM
Hamsat 25 Oct 17:17:37 17:18:12 10° 66° (ENE) 17:18:47 145.90 MHz
Saudisat 1A 25 Oct 17:19:27 17:23:53 85° 61° (ENE) 17:28:18 436.775 MHz
AO-7 25 Oct 18:09:51 18:16:49 30° 263° (W) 18:23:51 29.400 - 29.500 MHz
Uosat F 25 Oct 18:11:37 18:15:21 21° 265° (W) 18:19:07 435.120 FM
OPAL 25 Oct 18:19:21 18:24:03 43° 101° (ESE) 18:28:44 ?
Hamsat 25 Oct 18:49:29 18:53:37 56° 260° (W) 18:57:45 145.90 MHz
JAS-2 25 Oct 18:50:39 18:56:13 48° 262° (W) 19:02:33 435.800 - 435.900 CW/SSB, 435.910 FM
ISS 25 Oct 18:52:04 18:54:05 15° 28° (NNE) 18:56:06 145.800 FM
SO-67 25 Oct 19:28:25 19:31:39 40° 75° (ENE) 19:34:53 435.3500 MHz FM
OPAL 25 Oct 19:59:12 20:02:35 19° 296° (WNW) 20:05:57 ?
